Powrót do katalogu

CZ-6A DEB

AktywnyPO
NORAD 61489·DEBRIS·🇨🇳 China

Wystrzelony Aug 6, 2024 z Taiyuan Satellite Launch Center

Loading…

Następne Przeloty (najbliższe 24 godziny)

TLE

ŚwieżeSource: Space-Track

Epoka: Sep 13, 2026, 01:20 UTC

1 61489U 24140AAX 26256.05615343  .00010931  00000-0  13279-2 0  9995
2 61489  89.2121 279.2841 0066742 194.4140 165.5183 14.81841379105993

Śledź CZ-6A DEB w czasie rzeczywistym z AllMySat

Download on the App Store